Friendswood, TX

8:48 AM CST on February 06, 2016 (GMT -0600)
Clover

Weather History for KLVJ - April, 2013

Change the Weather History Date:

Thursday, April 4, 2013

  Actual Average (KHOU) Record (KHOU)
Temperature  
Mean Temperature 54 °F 67 °F  
Max Temperature 57 °F 77 °F 88 °F (1897)
Min Temperature 51 °F 56 °F 34 °F (1987)
Degree Days  
Heating Degree Days 11 2  
Month to date heating degree days 8  
Since 1 July heating degree days 1337  
Cooling Degree Days 0 4  
Month to date cooling degree days 16  
Year to date cooling degree days 125  
Growing Degree Days 4 (Base 50)    
Moisture  
Dew Point 45 °F    
Average Humidity 74    
Maximum Humidity 89    
Minimum Humidity 57    
Precipitation  
Precipitation 0.00 in 0.10 in 3.35 in (1922)
Month to date precipitation 0.40  
Year to date precipitation 10.39  
Sea Level Pressure  
Sea Level Pressure 30.11 in    
Wind  
Wind Speed 8 mph (NNW)    
Max Wind Speed 16 mph    
Max Gust Speed 23 mph    
Visibility 8 miles    
Events      
T = Trace of Precipitation, MM = Missing Value Source: NWS Daily Summary

Daily Weather History Graph

Daily Weather History Graph

Search for Another Location

Airport or City:

Trip Planner

Search our weather history database for the weather conditions in past years. The results will help you decide how hot, cold, wet, or windy it might be!

Date:

Astronomy

Apr. 04, 2013 Rise Set
Actual Time 7:06 AM CDT 7:41 PM CDT
Civil Twilight 6:42 AM CDT 8:05 PM CDT
Nautical Twilight 6:14 AM CDT 8:33 PM CDT
Astronomical Twilight 5:45 AM CDT 9:02 PM CDT
Moon 3:08 AM CDT (4/4) 2:24 PM CDT (4/4)
Length of Visible Light 13h 22m
Length of Day
12h 34m
Waning Crescent, 33% of the Moon is Illuminated
Apr 4
Waning Crescent
Apr 10
New
Apr 18
First Quarter
Apr 25
Full
May 2
Last Quarter

Hourly Weather History & Observations

Time (CDT) Temp. Dew Point Humidity Pressure Visibility Wind Dir Wind Speed Gust Speed Precip Events Conditions
12:05 AM 53.6 °F 48.2 °F 82% 30.09 in 9.0 mi North 6.9 mph - N/A   Overcast
12:45 AM 53.6 °F 48.2 °F 82% 30.10 in 9.0 mi NNW 5.8 mph - N/A   Overcast
12:53 AM 53.1 °F 48.9 °F 86% 30.09 in 9.0 mi North 5.8 mph - N/A   Overcast
1:53 AM 52.0 °F 48.9 °F 89% 30.08 in 6.0 mi NNW 6.9 mph - N/A   Overcast
2:02 AM 51.8 °F 48.2 °F 88% 30.08 in 4.0 mi NNW 5.8 mph - N/A   Overcast
2:09 AM 51.8 °F 48.2 °F 88% 30.08 in 3.0 mi North 4.6 mph - N/A   Overcast
2:20 AM 51.8 °F 48.2 °F 88% 30.08 in 2.5 mi North 5.8 mph - N/A   Overcast
2:34 AM 51.8 °F 48.2 °F 88% 30.08 in 3.0 mi North 5.8 mph - N/A   Overcast
2:53 AM 52.0 °F 48.9 °F 89% 30.07 in 4.0 mi North 4.6 mph - N/A   Overcast
3:53 AM 52.0 °F 48.9 °F 89% 30.04 in 6.0 mi North 4.6 mph - N/A   Overcast
4:53 AM 52.0 °F 48.0 °F 86% 30.05 in 8.0 mi NNW 8.1 mph - N/A   Overcast
5:53 AM 52.0 °F 48.0 °F 86% 30.07 in 9.0 mi NW 6.9 mph - N/A   Overcast
6:53 AM 51.1 °F 46.9 °F 86% 30.09 in 8.0 mi WNW 10.4 mph - 0.00 in   Overcast
7:02 AM 51.8 °F 46.4 °F 82% 30.09 in 9.0 mi NW 8.1 mph - N/A   Overcast
7:13 AM 51.8 °F 46.4 °F 82% 30.10 in 9.0 mi WNW 10.4 mph - N/A   Overcast
7:28 AM 51.8 °F 46.4 °F 82% 30.11 in 8.0 mi NW 8.1 mph - N/A   Overcast
7:53 AM 51.1 °F 46.9 °F 86% 30.12 in 4.0 mi WNW 8.1 mph - N/A   Overcast
8:14 AM 51.8 °F 46.4 °F 82% 30.12 in 7.0 mi NW 6.9 mph - N/A   Overcast
8:53 AM 51.1 °F 46.0 °F 83% 30.13 in 6.0 mi NW 8.1 mph - N/A   Haze
9:53 AM 53.1 °F 46.0 °F 77% 30.14 in 7.0 mi NNW 10.4 mph - N/A   Overcast
10:53 AM 54.0 °F 45.0 °F 72% 30.15 in 9.0 mi NNW 8.1 mph 18.4 mph N/A   Overcast
11:53 AM 55.0 °F 46.0 °F 72% 30.15 in 10.0 mi NNW 12.7 mph - N/A   Overcast
12:53 PM 55.0 °F 44.1 °F 67% 30.14 in 10.0 mi NNW 12.7 mph - N/A   Overcast
1:53 PM 57.0 °F 42.1 °F 57% 30.12 in 10.0 mi NW 15.0 mph 21.9 mph N/A   Overcast
2:53 PM 55.0 °F 43.0 °F 64% 30.10 in 10.0 mi NW 16.1 mph 21.9 mph N/A   Overcast
3:07 PM 55.4 °F 42.8 °F 63% 30.11 in 10.0 mi NW 13.8 mph 23.0 mph N/A   Overcast
3:53 PM 55.9 °F 43.0 °F 62% 30.09 in 10.0 mi NW 13.8 mph 19.6 mph N/A   Mostly Cloudy
4:07 PM 57.2 °F 42.8 °F 59% 30.09 in 10.0 mi NW 15.0 mph 20.7 mph N/A   Scattered Clouds
4:53 PM 57.0 °F 42.1 °F 57% 30.09 in 10.0 mi NNW 11.5 mph 20.7 mph N/A   Overcast
5:53 PM 55.0 °F 42.1 °F 62% 30.10 in 10.0 mi NNW 12.7 mph 20.7 mph N/A   Overcast
6:25 PM 53.6 °F 41.0 °F 62% 30.11 in 10.0 mi NNW 10.4 mph - N/A   Overcast
6:53 PM 53.1 °F 41.0 °F 64% 30.12 in 10.0 mi North 13.8 mph - N/A   Overcast
7:26 PM 53.6 °F 41.0 °F 62% 30.13 in 10.0 mi NNW 9.2 mph 18.4 mph N/A   Overcast
7:53 PM 52.0 °F 39.9 °F 63% 30.13 in 10.0 mi NNW 11.5 mph - N/A   Overcast
8:34 PM 51.8 °F 41.0 °F 67% 30.15 in 10.0 mi NNW 8.1 mph - N/A   Overcast
8:53 PM 53.1 °F 41.0 °F 64% 30.14 in 10.0 mi NNW 5.8 mph - N/A   Overcast
9:26 PM 51.8 °F 41.0 °F 67% 30.16 in 10.0 mi North 10.4 mph - N/A   Overcast
9:53 PM 52.0 °F 39.9 °F 63% 30.18 in 10.0 mi NNW 15.0 mph 20.7 mph N/A   Overcast
10:53 PM 52.0 °F 39.9 °F 63% 30.20 in 10.0 mi North 10.4 mph - N/A   Overcast
11:53 PM 51.1 °F 39.0 °F 63% 30.20 in 10.0 mi NNW 9.2 mph 18.4 mph N/A   Overcast